EST,Max TemperatureF,Mean TemperatureF,Min TemperatureF,Max Dew PointF,MeanDew PointF,Min DewpointF,Max Humidity, Mean Humidity, Min Humidity, Max Sea Level PressureIn, Mean Sea Level PressureIn, Min Sea Level PressureIn, Max VisibilityMiles, Mean VisibilityMiles, Min VisibilityMiles, Max Wind SpeedMPH, Mean Wind SpeedMPH, Max Gust SpeedMPH,PrecipitationIn, CloudCover, Events, WindDirDegrees
2013-11-1,69,64,59,66,61,59,100,85,70,29.88,29.77,29.70,10,8,1,25,10,31,0.51,8,Rain,211
2013-11-2,71,58,45,59,50,38,100,67,34,29.99,29.82,29.73,10,7,0,23,4,35,T,5,Fog-Rain,281
2013-11-3,62,49,36,41,35,32,92,63,34,30.34,30.18,30.00,10,10,10,18,8,22,0.00,0,,360
2013-11-4,60,48,36,35,32,27,92,60,28,30.53,30.47,30.38,10,10,10,13,7,23,0.00,2,,38
2013-11-5,58,47,35,48,38,30,83,69,55,30.57,30.49,30.43,10,10,10,14,8,18,0.00,8,,17
2013-11-6,73,61,49,53,50,46,93,71,49,30.42,30.29,30.12,10,10,9,9,5,16,0.00,5,,20
2013-11-7,74,58,42,58,46,31,96,68,39,30.14,30.04,29.96,10,10,7,17,7,24,T,4,,317
2013-11-8,60,47,34,34,26,18,76,48,19,30.33,30.27,30.15,10,10,10,14,6,18,0.00,1,,12
2013-11-9,60,43,26,34,29,25,92,60,28,30.39,30.31,30.22,10,10,10,15,4,18,0.00,6,,236
2013-11-10,73,55,37,38,33,27,79,52,24,30.24,30.19,30.12,10,10,10,16,5,22,0.00,3,,307
2013-11-11,61,50,38,34,27,22,70,47,23,30.36,30.26,30.17,10,10,10,16,4,22,0.00,0,,61
2013-11-12,67,49,31,37,32,17,92,59,26,30.46,30.20,30.07,10,10,5,26,9,36,0.12,6,Rain-Snow,5
2013-11-13,47,34,21,24,18,14,81,55,28,30.57,30.51,30.45,10,10,10,16,5,22,0.00,0,,3
2013-11-14,57,39,21,29,22,16,92,56,20,30.49,30.42,30.35,10,10,10,13,4,17,0.00,0,,199
2013-11-15,60,45,29,49,37,23,100,72,43,30.36,30.29,30.21,10,9,2,10,3,15,0.21,7,Rain,153
2013-11-16,65,57,49,55,52,48,100,86,72,30.28,30.23,30.20,10,7,3,8,3,21,T,8,,38
2013-11-17,70,61,52,65,58,53,100,83,66,30.21,30.09,29.91,10,5,0,16,6,21,0.07,8,Fog-Rain,155
2013-11-18,78,66,53,67,49,27,100,63,25,29.99,29.89,29.83,10,10,5,25,9,33,0.03,4,Rain,293
2013-11-19,57,48,39,30,25,22,59,43,26,30.28,30.14,30.00,10,10,10,18,8,24,0.00,3,,26
2013-11-20,54,45,36,33,30,27,64,53,41,30.45,30.38,30.27,10,10,10,16,8,23,0.00,4,,45
2013-11-21,58,50,42,44,38,32,77,67,57,30.49,30.44,30.38,10,10,10,13,7,20,0.00,8,,15
2013-11-22,65,58,51,58,52,43,90,79,67,30.39,30.26,30.12,10,10,9,12,5,16,0.01,8,Rain,242
2013-11-23,61,52,42,58,46,17,100,66,31,30.21,30.12,30.07,10,7,0,16,7,26,T,7,Fog,334
2013-11-24,42,35,27,21,9,0,49,34,19,30.53,30.42,30.22,10,10,10,20,10,25,0.00,4,,10
2013-11-25,43,31,19,11,6,3,54,37,20,30.58,30.49,30.36,10,10,10,9,4,15,0.00,7,,104
2013-11-26,46,39,32,45,35,9,100,64,27,30.30,29.94,29.62,10,4,2,18,8,23,2.36,8,Rain,22
2013-11-27,47,36,25,46,36,16,100,76,51,30.22,29.75,29.56,10,8,0,20,8,30,0.32,6,Rain,331
2013-11-28,47,33,19,25,19,15,84,59,34,30.49,30.39,30.24,10,10,10,8,1,12,0.00,0,,285
2013-11-29,54,38,21,29,23,19,92,59,26,30.60,30.53,30.48,10,10,10,13,4,20,0.00,0,,65
2013-11-30,49,38,26,25,22,20,81,58,34,30.65,30.54,30.39,10,10,10,13,6,20,0.00,4,,31